Location: Emberg
(48.6912°N, 8.6691°E)
Time: 13:17:41
(UTC+00:00)

Daily predictions for brighter satellites

Satellite Brightness Start Highest point End
(mag) Time Altitude Azimuth Time Altitude Azimuth Time Altitude Azimuth
CENTAUR R/B 2.5 15:59:49 10° SW 16:05:23 89° SSE 16:12:32 10° NE
NOSS 2-2 (D) 4.3 16:02:58 10° S 16:05:46 23° ESE 16:08:18 10° ENE
Cosmos 1782 3.8 16:04:54 10° SE 16:07:46 23° E 16:10:39 10° NE
Cosmos 2263 Rocket 3.8 16:04:41 10° N 16:07:52 15° NNE 16:11:03 10° ENE
YAOGAN 1 4.4 16:07:43 10° ENE 16:08:41 11° NE 16:09:40 10° NE
Cosmos 1607 4.3 16:07:23 10° NNW 16:13:18 43° NE 16:19:14 10° ESE
SL-16 R/B 2.6 16:08:11 10° NNE 16:14:27 74° ESE 16:20:38 10° S
Cosmos 1356 Rocket 3.3 16:10:33 10° S 16:14:32 67° E 16:18:36 10° NNE
NOSS 2-2 (E) 4.3 16:12:06 10° S 16:14:53 23° ESE 16:17:20 10° ENE
Cosmos 405 Rocket 2.6 16:11:54 10° N 16:15:03 42° ENE 16:18:09 10° SSE
Cosmos 1733 3.1 16:13:47 10° NNE 16:15:11 17° ENE 16:16:32 10° ESE
Cosmos 2227 Rocket 3.3 16:13:02 10° N 16:17:29 23° NE 16:21:55 10° E
CORIOLIS 4.2 16:12:20 10° SE 16:17:32 56° ENE 16:22:45 10° N
SJ-12 4.5 16:17:31 10° SE 16:20:51 31° ENE 16:24:13 10° N
Cosmos 2369 Rocket 3.6 16:17:06 10° WSW 16:22:13 34° NW 16:27:23 10° NNE
Cosmos 773 Rocket 4.2 16:17:38 10° NNW 16:22:42 50° ENE 16:27:46 10° SE
USA 215 3.8 16:17:22 10° ENE 16:23:28 43° N 16:29:35 10° WNW
Cosmos 2228 2.9 16:22:34 10° S 16:26:47 76° E 16:31:03 10° NNE
ARIANE 5 R/B 2.7 16:23:38 10° SE 16:28:30 51° ENE 16:33:26 10° N
Cosmos 1758 Rocket 3.6 16:24:51 10° N 16:29:06 52° ENE 16:33:17 10° SSE
Intercosmos 24 3.7 16:25:33 10° N 16:29:39 66° ENE 16:33:10 10° SSE
Cosmos 2208 Rocket 4.0 16:25:27 10° NNW 16:30:33 58° ENE 16:35:39 10° SE
BREEZE M DEB (TANK) 4.0 16:14:52 10° WNW 16:31:13 81° SSW 16:35:20 10° ESE
SPOT 1/Viking Rocket 4.4 16:27:09 10° ESE 16:31:32 28° ENE 16:35:56 10° N
Cosmos 2098 Rocket 3.4 16:28:35 10° SSE 16:32:14 39° E 16:36:30 10° NNE
GEOS 3 Rocket 3.7 16:29:37 10° NE 16:35:01 90° N 16:40:25 10° SW
Cosmos 1697 Rocket 4.0 16:33:32 10° SE 16:37:30 20° E 16:40:11 15° ENE
Meteor 1-20 Rocket 4.4 16:37:25 10° N 16:42:42 47° ENE 16:47:56 10° SE
AQUARIUS 4.3 16:38:39 10° SE 16:42:52 48° ENE 16:47:09 10° N
USA 290 2.6 16:44:19 10° N 16:47:26 41° ENE 16:50:32 10° SE
IRS-1C 4.0 16:44:46 10° SSE 16:50:04 76° ENE 16:55:25 10° NNW
SL-08 ROCKET BODY 4.3 16:44:33 10° N 16:50:30 84° E 16:56:31 10° S
BREEZE-M DEB (TANK) 3.6 16:50:25 10° W 16:53:18 57° N 16:59:05 17° ENE
Cosmos 1626 Rocket 3.7 16:49:07 10° NNW 16:53:28 76° W 16:57:45 10° S
NOSS 2-2 (C) 3.3 16:51:10 10° WSW 16:54:19 50° NW 16:56:15 19° NNE
SMAP 3.2 16:49:51 10° S 16:54:30 78° WSW 16:59:11 10° NNW
CZ-2D R/B 2.6 16:51:53 10° SSE 16:55:00 75° ENE 16:58:09 10° N
NOSS 3-2 (C) 3.6 16:54:38 10° S 16:59:17 41° ESE 17:02:36 21° ENE
Thor Agena Rocket 4.2 16:54:12 10° S 16:59:21 60° WSW 17:04:29 10° NNW
Landsat 7 3.8 16:55:59 10° SSE 17:00:39 87° WSW 17:05:20 10° NNW
NOSS 3-2 (A) 3.1 16:55:47 10° SW 17:00:49 87° NW 17:05:38 16° NE
Cosmos 2151 2.8 16:58:02 10° N 17:02:11 69° ENE 17:06:20 10° SSE
Cosmos 1606 Rocket 4.2 16:58:23 10° SSE 17:02:20 34° E 17:04:46 20° NE
Cosmos 1241 Rocket 4.4 16:55:58 10° SSW 17:02:21 82° SE 17:07:33 16° NE
Cosmos 1655 Rocket 4.4 16:56:47 10° N 17:02:36 38° ENE 17:08:20 10° SE
BlueWalker 3 2.4 17:01:52 10° WNW 17:05:25 56° SSW 17:08:45 11° SE
Cosmos 1743 2.3 17:03:34 10° NNW 17:06:51 81° W 17:10:05 10° S
ATLAS CENTAUR R/B 0.8 17:04:54 10° NW 17:08:10 77° SW 17:11:18 10° SSE
Cosmos 1076 Rocket 4.3 17:04:40 10° N 17:08:26 29° ENE 17:12:10 10° SE
UNK 4.0 17:03:57 10° N 17:08:32 69° WNW 17:13:04 10° SSW
Meteor 2-9 4.5 17:03:53 10° N 17:09:18 76° ENE 17:14:40 10° SSE
Resurs 1-3 4.1 17:06:13 10° SE 17:10:07 35° ENE 17:14:02 10° N
Okean 1-7 Rocket 3.5 17:05:52 10° N 17:10:15 61° ENE 17:14:33 10° SSE
Lacrosse 4 Rocket 3.2 17:07:35 10° W 17:10:59 25° NW 17:14:13 11° NNE
Cosmos 1544 Rocket 3.9 17:06:51 10° SSW 17:11:13 67° WNW 17:15:38 10° N
Cosmos 2297 Rocket 2.2 17:05:34 10° NNW 17:11:17 89° WSW 17:16:57 10° SSE
Meteor 1-25 Rocket 4.2 17:07:00 10° N 17:12:49 64° ENE 17:18:32 10° SSE
Cosmos 1656 3.7 17:07:54 10° SSW 17:13:31 85° WNW 17:18:29 14° NNE
Cosmos 1461 3.3 17:11:12 10° S 17:14:47 36° ESE 17:15:27 33° E
Cosmos 1503 Rocket 4.1 17:09:42 10° S 17:14:49 57° ESE 17:18:11 21° NE
IRIDIUM 104 4.3 17:12:14 10° N 17:17:29 88° W 17:22:42 10° S
Cosmos 1354 Rocket 4.3 17:16:42 10° S 17:21:43 46° ESE 17:23:56 29° NE
SAR-Lupe-3 4.2 17:23:19 49° S 17:23:19 49° S 17:25:17 10° S
Cosmos 2219 4.1 17:19:55 10° NNW 17:24:50 28° NE 17:25:09 28° NE
SKYMED 2 3.6 17:23:07 27° NNE 17:25:18 55° E 17:29:34 10° S
Spot 4 Rocket 4.0 17:20:49 10° SSE 17:25:48 58° ENE 17:30:50 10° N
Lacrosse 5 rocket 2.2 17:24:07 10° W 17:27:32 33° NNW 17:28:28 28° N
Meteor 1-5 Rocket 4.1 17:22:30 10° N 17:27:43 55° ENE 17:33:01 10° SSE
COSMO-SKYMED 1 2.9 17:29:11 39° ESE 17:29:11 39° ESE 17:32:47 10° SSE
Cosmos 1726 Rocket 3.8 17:24:29 10° SSE 17:28:56 48° E 17:30:23 35° NE
PSLV R/B 3.5 17:28:53 45° E 17:29:18 47° ENE 17:33:12 10° N
MOS 1 Rocket 3.7 17:25:33 10° S 17:30:20 68° W 17:35:27 10° NNW
CZ-4 R/B 4.2 17:26:48 10° SSE 17:30:45 88° ENE 17:34:43 10° NNW
Cosmos 1602 Rocket 4.2 17:26:56 10° NNW 17:31:16 58° W 17:35:32 10° S
SL-19 R/B 4.1 17:29:22 10° SSE 17:34:36 60° ENE 17:40:07 10° N
Cosmos 2084 Rocket 3.2 17:32:14 10° NW 17:36:28 83° NE 17:37:51 42° SE
CZ-4C R/B 2.9 17:29:38 10° NW 17:36:34 89° NE 17:45:13 10° SE
Cosmos 1777 Rocket 4.0 17:31:37 10° SSW 17:36:53 84° WNW 17:40:21 22° NNE
CZ-2D R/B 3.3 17:34:17 10° SSE 17:38:30 83° ENE 17:42:42 10° NNW
Cosmos 1980 Rocket 3.3 17:34:09 10° SSE 17:37:44 26° SE 17:37:44 26° SE
Cosmos 1867 3.4 17:35:01 10° NW 17:40:31 82° NE 17:44:00 23° SE
YAOGAN 1 2.3 17:39:32 10° SSE 17:43:47 77° ENE 17:48:04 10° N
Cosmos 1900 4.3 17:39:08 10° NW 17:44:14 89° SW 17:47:17 24° SE
Cosmos 2263 Rocket 2.2 17:47:32 10° NNW 17:53:06 55° NE 17:53:46 52° E
Cosmos 1953 Rocket 3.4 17:48:58 10° N 17:53:25 73° E 17:57:50 10° SSE
NOSS 2-2 (D) 4.4 17:52:05 10° W 17:54:45 27° NW 17:54:45 27° NW
CENTAUR R/B 3.8 17:51:21 10° W 17:56:58 34° NNW 18:00:51 21° NNE
SL-16 R/B 4.5 17:52:33 10° N 17:57:27 25° NW 18:02:18 10° WSW
Cosmos 1933 3.8 17:55:02 10° SSW 17:58:47 54° WNW 17:59:50 40° NNW
USA 238 DEB 4.0 17:53:18 10° S 17:58:22 38° SE 17:58:22 38° SE
USA 238 4.0 17:53:25 10° S 17:58:26 37° SE 17:58:26 37° SE
USA 81 3.9 17:54:48 10° N 18:00:05 71° E 18:05:20 10° SSE
Cosmos 2227 Rocket 2.2 17:56:32 10° NNW 18:02:13 82° WSW 18:06:42 17° SSE
Cosmos 1825 Rocket 4.3 18:01:22 10° NNW 18:05:36 50° W 18:09:46 10° S
USA 215 3.4 18:04:26 47° ENE 18:05:52 56° NNE 18:12:15 10° NW
BREEZE-M DEB (TANK) 4.3 18:02:50 10° SSW 18:09:01 31° SSE 18:09:01 31° SSE
NOAA 6 3.9 18:04:17 10° SSE 18:09:25 89° W 18:14:32 10° NNW
USA 281 4.4 18:11:45 25° NNE 18:11:45 25° NNE 18:15:31 10° N
SPOT 1/Viking Rocket 4.5 18:05:39 10° S 18:10:39 48° W 18:15:42 10° NNW
IRAS Rocket 4.4 18:08:28 10° S 18:13:56 70° WSW 18:19:25 10° NNW
Cosmos 990 Rocket 4.0 18:14:25 10° SSW 18:19:32 73° WNW 18:20:06 65° NNW
Cosmos 1697 Rocket 2.8 18:15:14 10° SW 18:20:50 73° WNW 18:21:56 56° N
Cosmos 1244 Rocket 4.4 18:30:34 10° N 18:36:53 82° W 18:43:07 10° S
NOSS 3-2 (C) 4.0 18:44:58 10° WSW 18:50:01 45° NW 18:50:02 45° NW
Cosmos 2219 4.5 19:03:44 10° NNW 19:07:05 36° NW 19:07:05 36° NW
Cosmos 1980 Rocket 3.9 19:16:59 10° SW 19:19:32 27° WSW 19:19:32 27° WSW
Cosmos 2263 Rocket 4.1 19:31:57 10° NW 19:35:29 26° W 19:35:29 26° W
CENTAUR R/B 4.5 19:44:01 10° NW 19:47:57 24° NNW 19:47:57 24° NNW
